Location: Fontevrault
(47.1823°N, 0.0493°E)
Time: 09:14:42
(UTC+00:00)

SPOT 5 - Pass Details

Date: 16 June 2021
Orbit: 622 x 815 km, 98.2° (Epoch: 27 July)

Event Time Altitude Azimuth Distance (km) Brightness Sun altitude
Exits shadow 20:53:07 10° 138° (SE) 2,379 4.8 -7.8°
Reaches altitude 10° 20:53:13 10° 138° (SE) 2,337 4.8 -7.8°
Maximum altitude 20:58:04 42° 69° (ENE) 1,072 3.6 -8.3°
Drops below altitude 10° 21:02:43 10° 359° (N) 2,244 6.2 -8.9°
Sets 21:05:02 0° 353° (N) 3,139 7.2 -9.1°
